sat.trackr.live / text

‹ back to catalog

STARLINK-3984

NORAD 52621 · 2022-052Z

PAYLOAD ACTIVE UNKNOWN

§ Identity

Operator
Country
US
Launch date
2022-05-14
Launch site
AFETR
Launch vehicle
Mass (kg)
RCS (m²)

Purposes: comms

External: N2YO · Heavens-Above · Gunter

§ Orbital elements

Epoch: 2026-05-25T02:36:41.153760Z

Period
95.44 min
Inclination
53.2146°
Eccentricity
0.0001289
Mean motion
15.08837628 rev/d
Perigee alt
538.9 km
Apogee alt
540.6 km
Semi-major
6,917.9 km
B*
2.8267e-5
RAAN
286.0605°
Arg perigee
88.6753°
Mean anomaly
271.4387°
Rev number
22,252

§ Raw data

STARLINK-39841 52621U 22052Z   26145.10880965  .00000162  00000+0  28267-4 0  99992 52621  53.2146 286.0605 0001289  88.6753 271.4387 15.08837628222526

JSON: /api/v1/satellites/52621 · /tle

For live sub-satellite position, see the globe view (requires WebGL).

§ Visibility from observer

Set your observer location to see the next 7 days of passes ≥ 10°. The values pass through the URL so the page stays shareable.

No JS? Fill the form by hand. The geolocation button needs JavaScript.